Location: Chippewa Lake
(41.0698°N, 81.9010°W)
Time: 20:16:33
(UTC+00:00)

Envisat - Pass Details

Date: 05 June 2023
Orbit: 763 x 764 km, 98.2° (Epoch: 24 September)

Event Time Altitude Azimuth Distance (km) Brightness Sun altitude
Rises 07:54:29 0° 35° (NE) 3,235 8.0 -17.7°
Reaches altitude 10° 07:58:14 10° 63° (ENE) 2,303 6.4 -17.3°
Maximum altitude 08:00:26 13° 89° (E) 2,112 5.8 -17.0°
Drops below altitude 10° 08:02:38 10° 115° (ESE) 2,297 5.6 -16.8°
Sets 08:06:20 0° 144° (SE) 3,216 6.1 -16.3°
